Location: Andershausen
(51.8462°N, 9.8595°E)
Time: 23:11:00
(UTC+00:00)

Cosmos 2297 Rocket - Visible Passes

Search period start: 15 February 2026 00:00
Search period end: 25 February 2026 00:00
Orbit: 838 x 843 km, 71.0° (Epoch: 15 February)

Date Brightness Start Highest point End Pass type
(mag) Time Alt. Az. Time Alt. Az. Time Alt. Az.
15 Feb 2.2 17:26:28 10° SSW 17:32:03 64° ESE 17:37:40 10° NE visible
15 Feb 3.8 19:11:28 10° WSW 19:16:30 32° NW 19:21:33 10° NNE visible
15 Feb 4.8 20:59:50 10° NW 21:02:27 13° NNW 21:04:09 12° N visible
16 Feb 2.3 17:11:01 10° SSW 17:16:35 61° ESE 17:22:10 10° NE visible
16 Feb 3.8 18:55:54 10° WSW 19:00:59 33° NW 19:06:06 10° NNE visible
16 Feb 4.8 20:44:11 10° NW 20:46:53 13° NNW 20:49:20 11° N visible
17 Feb 3.7 18:40:20 10° WSW 18:45:28 34° NW 18:50:38 10° NNE visible
17 Feb 4.8 20:28:32 10° NW 20:31:20 14° NNW 20:34:08 10° N visible
18 Feb 3.7 18:24:47 10° WSW 18:29:57 35° NW 18:35:10 10° NNE visible
18 Feb 4.8 20:12:54 10° NW 20:15:47 14° NNW 20:18:40 10° N visible
18 Feb 5.1 22:00:54 10° N 22:01:18 10° N 22:01:18 10° N visible
19 Feb 3.6 18:09:13 10° WSW 18:14:27 37° NW 18:19:42 10° NNE visible
19 Feb 4.7 19:57:15 10° NW 20:00:13 14° NNW 20:03:12 10° N visible
19 Feb 5.0 21:45:24 10° N 21:46:20 11° N 21:46:20 11° N visible
20 Feb 3.6 17:53:40 10° WSW 17:58:56 38° NW 18:04:14 10° NNE visible
20 Feb 4.7 19:41:37 10° NW 19:44:40 15° NNW 19:47:44 10° N visible
20 Feb 4.9 21:29:54 10° N 21:31:18 11° N 21:31:18 11° N visible
21 Feb 3.5 17:38:07 10° WSW 17:43:26 40° NW 17:48:46 10° NNE visible
21 Feb 4.7 19:25:58 10° WNW 19:29:07 15° NNW 19:32:16 10° NNE visible
21 Feb 4.9 21:14:23 10° N 21:15:51 11° N 21:16:15 11° N visible
22 Feb 3.4 17:22:34 10° WSW 17:27:56 41° NW 17:33:18 10° NNE visible
22 Feb 4.7 19:10:20 10° WNW 19:13:34 15° NNW 19:16:49 10° NNE visible
22 Feb 4.8 20:58:52 10° N 21:00:16 11° N 21:01:11 10° NNE visible
22 Feb 5.1 22:42:44 10° NNW 22:42:58 11° NNW 22:42:58 11° NNW visible
23 Feb 4.6 18:54:42 10° WNW 18:58:01 16° NNW 19:01:21 10° NNE visible
23 Feb 4.8 20:43:21 10° N 20:44:42 11° N 20:46:04 10° NNE visible
23 Feb 5.0 22:27:16 10° NNW 22:27:53 12° N 22:27:53 12° N visible
24 Feb 4.6 18:39:03 10° WNW 18:42:28 16° NNW 18:45:53 10° NNE visible
24 Feb 4.8 20:27:49 10° N 20:29:08 11° N 20:30:28 10° NNE visible
24 Feb 4.9 22:11:48 10° NNW 22:12:48 13° N 22:12:48 13° N visible
